Location: Walnut Point State Park
(39.6958°N, 88.0345°W)
Time: 11:42:20
(UTC-05:00)

Amateur Radio Satellites - All Passes

Search period start: 23 May 2017 11:12
Search period end: 24 May 2017 11:12
Location: Walnut Point State Park, 39.6958°N, 88.0345°W

Satellite Date Start Highest point End Downlink Frequencies (MHz)
Time Altitude Azimuth
NO-84 23 May 11:12:52 11:16:42 30° 327° (NNW) 11:20:22 435.350 FM
EO-79 23 May 11:19:38 11:23:25 34° 71° (ENE) 11:27:13 145.935-145.965
YUBILEINY 23 May 11:20:06 11:26:08 20° 64° (ENE) 11:32:07 435.215
ESTCUBE 1 23 May 11:22:45 11:25:42 17° 93° (E) 11:28:38 437.505/2401.250
EO-88 23 May 11:28:46 11:31:54 26° 289° (WNW) 11:35:01 145.990 - 145.960
AIST 2D 23 May 11:33:59 11:37:28 73° 258° (WSW) 11:41:00 435.315
FO-29 23 May 11:39:35 11:42:27 15° 269° (W) 11:45:18 435.910
Oscar 19 23 May 12:03:44 12:06:02 13° 60° (ENE) 12:08:20 437.125/150
NANOSAT C BR1 23 May 12:06:56 12:11:05 72° 258° (WSW) 12:15:17 145.865
POLYITAN 1 23 May 12:07:53 12:12:01 63° 259° (W) 12:16:11 437.675
QB50P2 23 May 12:16:29 12:20:30 45° 261° (W) 12:24:32 145.880/145.840
RS-15 23 May 12:17:46 12:30:03 90° 235° (SW) 12:41:39 29.354- 29.394
DUCHIFAT 1 23 May 12:19:50 12:23:55 56° 259° (W) 12:28:02 145.980
LO-87 23 May 12:24:12 12:27:34 41° 286° (WNW) 12:30:55 145.935 - 145.965
VELOX 1 23 May 12:34:28 12:38:07 25° 96° (E) 12:41:44 145.980
Gurwin Techsat 1B 23 May 12:48:59 12:52:54 21° 64° (ENE) 12:56:48 435.225
BUGSAT 1 23 May 12:53:12 12:57:11 79° 256° (WSW) 13:01:13 437.445
NO-84 23 May 12:54:24 12:55:22 11° 346° (NNW) 12:56:20 435.350 FM
EO-79 23 May 12:56:21 12:59:15 18° 266° (W) 13:02:11 145.935-145.965
SPROUT 23 May 12:56:42 13:00:49 46° 99° (E) 13:04:55 437.525
ESTCUBE 1 23 May 12:58:25 13:02:41 42° 288° (WNW) 13:06:55 437.505/2401.250
YUBILEINY 23 May 13:15:12 13:24:05 86° 265° (W) 13:32:56 435.215
DX 1 23 May 13:22:05 13:25:52 29° 97° (E) 13:29:37 434.975-435.025
UKube-1 23 May 13:22:32 13:25:42 20° 94° (E) 13:28:51 .
Oscar 19 23 May 13:39:25 13:44:38 81° 258° (WSW) 13:49:52 437.125/150
AO-85 23 May 13:56:43 14:00:21 31° 52° (NE) 14:04:07 145.980
BEESAT 3 23 May 14:01:54 14:03:44 13° 42° (NE) 14:05:33 437.485
50 SAT 23 May 14:05:22 14:08:36 40° 287° (WNW) 14:11:48 437.505
VELOX 1 23 May 14:10:47 14:14:30 28° 291° (WNW) 14:18:12 145.980
AO-7 23 May 14:24:39 14:32:04 38° 60° (ENE) 14:39:30 .
Gurwin Techsat 1B 23 May 14:27:20 14:32:27 49° 260° (W) 14:37:37 435.225
RS-15 23 May 14:32:27 14:40:43 22° 261° (W) 14:48:46 29.354- 29.394
SPROUT 23 May 14:33:50 14:36:20 15° 295° (WNW) 14:38:49 437.525
ITAMSAT 1 23 May 14:33:59 14:38:19 28° 67° (ENE) 14:42:42 435.822/435.867
BEESAT 23 May 14:44:19 14:46:46 14° 91° (E) 14:49:11 436.000
O/OREOS (USA 219) 23 May 14:50:10 14:54:42 87° 63° (ENE) 14:59:12 437.305
UKube-1 23 May 14:57:54 15:01:47 33° 290° (WNW) 15:05:38 .
DX 1 23 May 14:58:27 15:01:54 24° 292° (WNW) 15:05:21 434.975-435.025
MOZHAYETS 4 23 May 15:00:09 15:00:53 10° 89° (E) 15:01:37
BEESAT 2 23 May 15:09:49 15:13:01 22° 48° (NE) 15:16:10 435.950
YUBILEINY 23 May 15:14:41 15:19:28 16° 284° (WNW) 15:24:16 435.215
AO-85 23 May 15:37:20 15:40:35 23° 247° (WSW) 15:43:59 145.980
BEESAT 3 23 May 15:37:48 15:41:49 75° 240° (WSW) 15:45:45 437.485
ITUPSAT 1 23 May 15:44:06 15:48:52 58° 101° (E) 15:53:36 437.325
NO-84 23 May 16:10:26 16:13:25 22° 29° (NNE) 16:16:12 435.350 FM
ITAMSAT 1 23 May 16:13:00 16:17:39 34° 263° (W) 16:22:20 435.822/435.867
AO-7 23 May 16:16:41 16:24:36 49° 259° (W) 16:32:35 .
BEESAT 23 May 16:20:10 16:24:54 59° 287° (WNW) 16:29:35 436.000
MOZHAYETS 4 23 May 16:33:52 16:38:31 73° 285° (WNW) 16:43:08
DOVE 4 23 May 16:34:58 16:37:08 13° 65° (ENE) 16:39:14 437.250
BEESAT 2 23 May 16:47:08 16:50:52 35° 245° (WSW) 16:54:32 435.950
STARS 23 May 16:59:30 17:01:04 12° 91° (E) 17:02:38 437.465
XW-2D 23 May 17:03:53 17:05:12 12° 65° (ENE) 17:06:32 145.860 - 145.880
CUBESAT XI-V 23 May 17:10:24 17:14:55 47° 99° (E) 17:19:22 437.345
XW-2B 23 May 17:11:02 17:12:59 14° 66° (ENE) 17:14:57 145.730 - 145.750
ITUPSAT 1 23 May 17:23:22 17:26:11 16° 297° (WNW) 17:29:02 437.325
XW-2C 23 May 17:23:35 17:26:21 19° 68° (ENE) 17:29:08 145.795 - 145.815
XW-2F 23 May 17:25:18 17:28:03 19° 68° (ENE) 17:30:49 145.980 - 146.000
NUDT-PHONESAT 23 May 17:35:16 17:38:01 20° 69° (ENE) 17:40:47 437.300
KAITUO 1B 23 May 17:38:36 17:41:34 23° 69° (ENE) 17:44:34 145.475/437.950
CUTE-I 23 May 17:42:35 17:47:25 37° 69° (ENE) 17:52:17 437.470
HO-68 23 May 17:47:19 17:51:53 18° 56° (NE) 17:56:28 435.675
NO-84 23 May 17:47:47 17:51:09 43° 230° (SW) 17:54:15 435.350 FM
KKS-1 23 May 17:52:38 17:57:03 71° 285° (WNW) 18:01:27 437.445
LilacSat-2 23 May 17:56:36 18:00:18 52° 75° (ENE) 18:04:05 437.200
DOVE 4 23 May 18:09:39 18:14:22 62° 259° (W) 18:18:49 437.250
CUTE 1.7 + AOD 2 23 May 18:19:31 18:21:40 14° 64° (ENE) 18:23:48 437.475
STARS 23 May 18:33:26 18:37:45 59° 286° (WNW) 18:42:04 437.465
XW-2D 23 May 18:35:15 18:38:55 49° 261° (W) 18:42:39 145.860 - 145.880
XW-2B 23 May 18:43:14 18:46:48 40° 262° (W) 18:50:25 145.730 - 145.750
PCSat 23 May 18:47:19 18:50:10 15° 103° (ESE) 18:53:02 145.827
CUBESAT XI-V 23 May 18:48:51 18:51:53 17° 295° (WNW) 18:54:53 437.345
XW-2C 23 May 18:57:07 19:00:22 27° 264° (W) 19:03:38 145.795 - 145.815
XW-2F 23 May 18:58:46 19:02:00 27° 264° (W) 19:05:16 145.980 - 146.000
XW-2A 23 May 18:59:22 19:02:13 27° 72° (ENE) 19:05:07 145.665 - 145.685
NUDT-PHONESAT 23 May 19:08:41 19:11:45 24° 264° (W) 19:14:52 437.300
KAITUO 1B 23 May 19:12:29 19:15:29 22° 265° (W) 19:18:29 145.475/437.950
SEEDS 23 May 19:13:28 19:17:18 33° 71° (ENE) 19:21:08 437.485
CUTE-I 23 May 19:23:08 19:27:31 26° 265° (W) 19:31:57 437.470
HO-68 23 May 19:31:28 19:38:40 88° 253° (WSW) 19:45:55 435.675
AO-73 23 May 19:47:28 19:50:19 18° 66° (ENE) 19:53:13 145.935
CUTE 1.7 + AOD 2 23 May 19:52:51 19:57:01 53° 261° (W) 20:01:14 437.475
CUBEBUG 2 23 May 19:55:36 19:59:43 75° 77° (ENE) 20:03:55 437.445
ZACube-1 23 May 19:58:39 20:02:08 26° 69° (ENE) 20:05:42 437.345
UWE-3 23 May 20:13:04 20:17:11 69° 76° (ENE) 20:21:24 435.000/436.395/437.385
Tancredo 1 23 May 20:20:17 20:21:39 12° 129° (SE) 20:23:01 437.200
AAUSAT CUBESAT 2 23 May 20:22:59 20:27:09 82° 257° (WSW) 20:31:22 437.432
STRAND 1 23 May 20:25:10 20:30:21 87° 104° (ESE) 20:35:30 437.568
PCSat 23 May 20:27:30 20:32:53 72° 300° (WNW) 20:38:21 145.827
XW-2A 23 May 20:33:10 20:35:01 14° 267° (W) 20:36:52 145.665 - 145.685
SEEDS 23 May 20:49:58 20:53:02 19° 267° (W) 20:56:08 437.485
Oscar 11 23 May 20:59:16 21:03:36 86° 258° (WSW) 21:07:58 .
DELFI C3 23 May 21:12:41 21:16:18 34° 72° (ENE) 21:19:55 145.870
AO-73 23 May 21:22:24 21:26:15 36° 263° (W) 21:30:13 145.935
HO-68 23 May 21:23:42 21:27:16 14° 271° (W) 21:30:52 435.675
ZACube-1 23 May 21:34:57 21:38:21 24° 265° (W) 21:41:51 437.345
M-CUBED/EXP-1 PRIME 23 May 21:53:04 21:56:17 46° 291° (WNW) 21:59:24 437.505
ISS 23 May 21:53:28 21:56:46 82° 138° (SE) 22:00:04 437.550
Tancredo 1 23 May 21:54:01 21:57:03 59° 324° (NW) 22:00:06 437.200
UNISAT 6 23 May 21:56:22 21:59:34 18° 93° (E) 22:02:47 437.425
EO-88 23 May 22:04:48 22:08:26 74° 258° (WSW) 22:12:06 145.990 - 145.960
STRAND 1 23 May 22:06:57 22:08:45 12° 301° (WNW) 22:10:35 437.568
PCSat 23 May 22:14:52 22:17:17 13° 320° (NW) 22:19:42 145.827
ESTCUBE 1 23 May 22:21:58 22:24:37 15° 64° (ENE) 22:27:15 437.505/2401.250
SO-50 23 May 22:32:37 22:36:23 25° 113° (ESE) 22:40:08 436.795
FO-29 23 May 22:44:16 22:50:32 60° 101° (E) 22:57:36 435.910
DELFI C3 23 May 22:48:31 22:51:09 17° 267° (W) 22:53:47 145.870
LO-87 23 May 22:58:55 23:02:25 61° 76° (ENE) 23:05:56 145.935 - 145.965
TIGRISAT 23 May 23:01:06 23:05:41 85° 101° (ESE) 23:10:21 435.000
PRISM 23 May 23:03:29 23:07:31 61° 286° (WNW) 23:11:30 437.425
VELOX 1 23 May 23:31:08 23:34:29 21° 67° (ENE) 23:37:49 145.980
ISS 23 May 23:31:14 23:33:37 18° 339° (NNW) 23:36:00 437.550
Tancredo 1 23 May 23:31:42 23:33:21 13° 343° (NNW) 23:34:59 437.200
UNISAT 6 23 May 23:32:06 23:36:24 42° 288° (WNW) 23:40:46 437.425
SPROUT 23 May 23:49:14 23:52:57 31° 70° (ENE) 23:56:42 437.525
NANOSAT C BR1 23 May 23:52:44 23:55:45 19° 94° (E) 23:58:45 145.865
POLYITAN 1 23 May 23:53:57 23:57:15 21° 95° (E) 00:00:33 437.675
ESTCUBE 1 23 May 23:56:32 00:00:57 52° 260° (W) 00:05:25 437.505/2401.250
QB50P2 24 May 00:02:05 00:05:48 29° 96° (E) 00:09:31 145.880/145.840
DUCHIFAT 1 24 May 00:04:55 00:08:18 23° 95° (E) 00:11:41 145.980
SO-50 24 May 00:12:28 00:16:40 35° 309° (NW) 00:20:52 436.795
UKube-1 24 May 00:16:45 00:19:25 16° 65° (ENE) 00:22:05 .
DX 1 24 May 00:16:58 00:20:26 24° 68° (ENE) 00:23:54 434.975-435.025
YUBILEINY 24 May 00:21:17 00:27:28 22° 80° (E) 00:33:40 435.215
FO-29 24 May 00:30:23 00:35:14 24° 295° (WNW) 00:40:32 435.910
AIST 2D 24 May 00:32:53 00:36:22 51° 285° (WNW) 00:39:49 435.315
RS-15 24 May 00:35:06 00:39:58 13° 94° (E) 00:44:52 29.354- 29.394
50 SAT 24 May 00:36:20 00:39:43 54° 74° (ENE) 00:43:07 437.505
BUGSAT 1 24 May 00:36:41 00:39:08 15° 93° (E) 00:41:37 437.445
EO-79 24 May 00:40:00 00:44:16 74° 102° (ESE) 00:48:31 145.935-145.965
TIGRISAT 24 May 00:41:22 00:41:41 10° 298° (WNW) 00:42:01 435.000
VELOX 1 24 May 01:06:40 01:10:42 34° 262° (W) 01:14:44 145.980
ISS 24 May 01:10:30 01:11:08 10° 359° (N) 01:11:48 437.550
SPROUT 24 May 01:25:41 01:28:53 21° 266° (W) 01:32:06 437.525
NANOSAT C BR1 24 May 01:27:41 01:31:31 34° 289° (WNW) 01:35:22 145.865
POLYITAN 1 24 May 01:29:17 01:33:02 30° 290° (WNW) 01:36:47 437.675
QB50P2 24 May 01:38:05 01:41:27 23° 292° (WNW) 01:44:49 145.880/145.840
DUCHIFAT 1 24 May 01:40:18 01:43:56 28° 290° (WNW) 01:47:34 145.980
BEESAT 24 May 01:50:03 01:52:52 16° 63° (ENE) 01:55:42 436.000
UKube-1 24 May 01:50:57 01:55:04 44° 260° (W) 01:59:13 .
Oscar 19 24 May 01:52:04 01:56:52 37° 98° (E) 02:01:37 437.125/150
DX 1 24 May 01:52:39 01:56:27 29° 263° (W) 02:00:17 434.975-435.025
BUGSAT 1 24 May 02:10:47 02:14:39 40° 288° (WNW) 02:18:32 437.445
YUBILEINY 24 May 02:14:35 02:23:17 74° 279° (W) 02:32:04 435.215
RS-15 24 May 02:38:03 02:49:53 67° 114° (ESE) 03:02:04 29.354- 29.394
Gurwin Techsat 1B 24 May 02:44:04 02:49:24 71° 102° (ESE) 02:54:41 435.225
Tancredo 1 24 May 02:44:37 02:46:56 19° 23° (NNE) 02:49:15 437.200
ISS 24 May 02:46:27 02:48:43 17° 20° (NNE) 02:50:58 437.550
ITUPSAT 1 24 May 02:49:48 02:54:29 61° 73° (ENE) 02:59:13 437.325
BEESAT 24 May 03:25:30 03:30:10 56° 259° (W) 03:34:51 436.000
O/OREOS (USA 219) 24 May 03:25:48 03:27:06 11° 97° (E) 03:28:22 437.305
Oscar 19 24 May 03:31:46 03:35:58 26° 294° (WNW) 03:40:09 437.125/150
MOZHAYETS 4 24 May 03:34:28 03:39:02 85° 255° (WSW) 03:43:42
PCSat 24 May 03:34:39 03:37:16 13° 41° (NE) 03:39:52 145.827
STARS 24 May 03:56:43 03:57:24 10° 61° (ENE) 03:58:03 437.465
CUBESAT XI-V 24 May 04:12:32 04:16:58 42° 72° (ENE) 04:21:25 437.345
AO-85 24 May 04:13:10 04:14:27 11° 109° (ESE) 04:15:44 145.980
YUBILEINY 24 May 04:17:35 04:21:46 14° 301° (WNW) 04:25:59 435.215
AO-7 24 May 04:18:34 04:26:51 62° 104° (ESE) 04:35:06 .
Tancredo 1 24 May 04:19:54 04:22:56 59° 220° (SW) 04:25:57 437.200
ISS 24 May 04:22:19 04:25:37 86° 41° (NE) 04:28:53 437.550
Gurwin Techsat 1B 24 May 04:25:45 04:28:43 15° 299° (WNW) 04:31:41 435.225
ITAMSAT 1 24 May 04:25:51 04:31:06 89° 103° (ESE) 04:36:19 435.822/435.867
ITUPSAT 1 24 May 04:30:26 04:32:42 13° 269° (W) 04:34:58 437.325
KKS-1 24 May 04:49:25 04:53:51 86° 255° (WSW) 04:58:18 437.445
RS-15 24 May 04:51:48 05:03:10 43° 318° (NW) 05:14:47 29.354- 29.394
O/OREOS (USA 219) 24 May 05:01:17 05:05:52 67° 293° (WNW) 05:10:27 437.305
PCSat 24 May 05:16:09 05:21:36 76° 61° (ENE) 05:27:01 145.827
BEESAT 3 24 May 05:27:20 05:30:19 21° 112° (ESE) 05:33:21 437.485
STARS 24 May 05:28:45 05:33:06 75° 258° (WSW) 05:37:27 437.465
AO-85 24 May 05:50:14 05:54:23 61° 304° (WNW) 05:58:21 145.980
CUBESAT XI-V 24 May 05:51:12 05:54:30 19° 267° (W) 05:57:49 437.345
CUTE-I 24 May 06:01:29 06:04:36 16° 91° (E) 06:07:42 437.470
STRAND 1 24 May 06:04:11 06:06:44 14° 61° (ENE) 06:09:17 437.568
ITAMSAT 1 24 May 06:07:56 06:09:47 12° 301° (WNW) 06:11:38 435.822/435.867
DOVE 4 24 May 06:09:15 06:13:00 33° 97° (E) 06:16:50 437.250
XW-2D 24 May 06:09:18 06:11:56 17° 93° (E) 06:14:33 145.860 - 145.880
AO-7 24 May 06:12:05 06:19:05 31° 302° (WNW) 06:26:06 .
XW-2B 24 May 06:16:54 06:19:51 21° 94° (E) 06:22:47 145.730 - 145.750
XW-2C 24 May 06:30:01 06:33:28 30° 97° (E) 06:36:52 145.795 - 145.815
XW-2F 24 May 06:31:15 06:34:40 30° 97° (E) 06:38:03 145.980 - 146.000
BEESAT 2 24 May 06:37:03 06:40:49 44° 116° (ESE) 06:44:39 435.950
JUGNU 24 May 06:39:01 06:39:49 10° 182° (S) 06:40:36 437.505
NUDT-PHONESAT 24 May 06:39:19 06:42:41 30° 97° (E) 06:46:00 437.300
KAITUO 1B 24 May 06:43:41 06:47:12 34° 97° (E) 06:50:40 145.475/437.950
PCSat 24 May 07:01:40 07:04:17 14° 257° (WSW) 07:06:53 145.827
HO-68 24 May 07:01:45 07:06:28 18° 91° (E) 07:11:10 435.675
BEESAT 3 24 May 07:04:06 07:07:42 32° 308° (NW) 07:11:20 437.485
SO-50 24 May 07:04:18 07:07:43 21° 45° (NE) 07:11:07 436.795
LilacSat-2 24 May 07:04:32 07:08:26 89° 283° (WNW) 07:12:18 437.200
M-CUBED/EXP-1 PRIME 24 May 07:04:51 07:07:18 15° 62° (ENE) 07:09:39 437.505
RS-15 24 May 07:11:40 07:20:23 21° 351° (N) 07:29:04 29.354- 29.394
CUTE 1.7 + AOD 2 24 May 07:38:46 07:42:24 27° 95° (E) 07:46:01 437.475
CUTE-I 24 May 07:39:46 07:45:03 63° 287° (WNW) 07:50:18 437.470
STRAND 1 24 May 07:40:12 07:45:16 73° 258° (WSW) 07:50:23 437.568
XW-2D 24 May 07:42:46 07:46:09 30° 289° (WNW) 07:49:32 145.860 - 145.880
DOVE 4 24 May 07:47:35 07:50:30 19° 292° (WNW) 07:53:28 437.250
CUBEBUG 2 24 May 07:47:36 07:50:44 18° 93° (E) 07:53:53 437.445
XW-2B 24 May 07:50:47 07:53:59 25° 290° (WNW) 07:57:10 145.730 - 145.750
XW-2A 24 May 07:54:05 07:57:14 32° 98° (E) 08:00:21 145.665 - 145.685
UWE-3 24 May 08:04:09 08:07:02 16° 92° (E) 08:09:55 435.000/436.395/437.385
XW-2C 24 May 08:04:46 08:07:25 18° 292° (WNW) 08:10:02 145.795 - 145.815
XW-2F 24 May 08:05:56 08:08:34 18° 292° (WNW) 08:11:12 145.980 - 146.000
AAUSAT CUBESAT 2 24 May 08:07:01 08:09:37 16° 92° (E) 08:12:12 437.432
NUDT-PHONESAT 24 May 08:13:48 08:16:21 17° 292° (WNW) 08:18:52 437.300
BEESAT 2 24 May 08:16:00 08:18:47 18° 314° (NW) 08:21:37 435.950
KAITUO 1B 24 May 08:18:36 08:20:54 16° 293° (WNW) 08:23:11 145.475/437.950
SEEDS 24 May 08:33:02 08:37:16 74° 103° (ESE) 08:41:26 437.485
M-CUBED/EXP-1 PRIME 24 May 08:37:10 08:41:25 49° 255° (WSW) 08:45:23 437.505
SO-50 24 May 08:44:04 08:48:25 48° 243° (WSW) 08:52:46 436.795
HO-68 24 May 08:47:38 08:54:51 78° 289° (WNW) 09:02:01 435.675
Oscar 11 24 May 08:48:10 08:51:13 18° 93° (E) 08:54:16 .
UNISAT 6 24 May 08:55:32 08:57:46 14° 64° (ENE) 09:00:00 437.425
FO-29 24 May 08:58:38 09:02:11 19° 63° (ENE) 09:05:47 435.910
SRMSAT 24 May 09:01:35 09:02:20 10° 180° (S) 09:03:06 437.500
NO-84 24 May 09:02:55 09:06:56 36° 129° (SE) 09:10:53 435.350 FM
AO-73 24 May 09:10:24 09:14:44 43° 98° (E) 09:19:05 145.935
CUTE 1.7 + AOD 2 24 May 09:14:39 09:18:07 24° 291° (WNW) 09:21:33 437.475
ZACube-1 24 May 09:22:35 09:27:06 66° 100° (E) 09:31:39 437.345
CUBEBUG 2 24 May 09:23:10 09:27:28 43° 288° (WNW) 09:31:52 437.445
XW-2A 24 May 09:27:58 09:29:40 13° 293° (WNW) 09:31:23 145.665 - 145.685
RS-15 24 May 09:28:44 09:38:51 28° 27° (NNE) 09:48:38 29.354- 29.394
UWE-3 24 May 09:39:17 09:43:40 47° 287° (WNW) 09:48:07 435.000/436.395/437.385
AAUSAT CUBESAT 2 24 May 09:41:23 09:45:13 37° 288° (WNW) 09:49:01 437.432
PRISM 24 May 09:51:18 09:55:26 81° 75° (ENE) 09:59:35 437.425
TIGRISAT 24 May 09:58:52 10:03:03 64° 75° (ENE) 10:07:19 435.000
Oscar 11 24 May 10:23:27 10:27:28 36° 289° (WNW) 10:31:27 .
DELFI C3 24 May 10:24:39 10:28:34 62° 101° (E) 10:32:25 145.870
UNISAT 6 24 May 10:29:52 10:34:01 50° 261° (W) 10:38:14 437.425
HO-68 24 May 10:37:40 10:41:26 15° 307° (NW) 10:45:10 435.675
NO-84 24 May 10:40:33 10:44:34 35° 325° (NW) 10:48:26 435.350 FM
FO-29 24 May 10:41:54 10:46:55 48° 260° (W) 10:51:59 435.910
NANOSAT C BR1 24 May 10:45:08 10:47:05 13° 64° (ENE) 10:49:03 145.865
POLYITAN 1 24 May 10:46:34 10:48:59 15° 65° (ENE) 10:51:24 437.675
AO-73 24 May 10:47:31 10:50:37 18° 294° (WNW) 10:53:45 145.935
QB50P2 24 May 10:54:20 10:57:23 20° 67° (ENE) 11:00:27 145.880/145.840
DUCHIFAT 1 24 May 10:56:42 10:59:13 16° 65° (ENE) 11:01:43 145.980
ZACube-1 24 May 11:00:50 11:02:49 13° 296° (WNW) 11:04:49 437.345
